Location: Hodgeman County
(38.0875°N, 99.8979°W)
Time: 01:49:00
(UTC+00:00)

Daily predictions for brighter satellites

Satellite Brightness Start Highest point End
(mag) Time Altitude Azimuth Time Altitude Azimuth Time Altitude Azimuth
CENTAUR R/B 3.4 02:19:24 10° NNW 02:27:47 79° ENE 02:36:46 10° SE
USA 267 4.4 02:25:34 10° ENE 02:30:04 19° ESE 02:34:33 10° SSE
In-Cosmos 22 Rocket 4.1 02:27:03 10° S 02:32:20 81° E 02:37:40 10° N
Cosmos 44 Rocket 4.1 02:29:03 10° S 02:33:37 33° ESE 02:38:17 10° NE
Cosmos 1634 Rocket 4.1 02:29:24 10° N 02:35:38 61° E 02:41:46 10° SSE
ERS-2 2.3 02:37:38 10° NNE 02:41:11 47° E 02:44:42 10° S
USA 238 DEB 4.0 02:35:17 10° NNW 02:42:41 87° WSW 02:50:21 10° SSE
USA 238 4.0 02:35:23 10° NNW 02:42:47 88° WSW 02:50:27 10° SSE
Helios 1A Rocket 3.1 02:39:15 10° S 02:43:15 75° WSW 02:47:19 10° NNW
Ariane Rocket 3.2 02:38:23 10° SSE 02:43:19 55° ENE 02:48:17 10° N
IRS-1A Rocket 4.3 02:39:25 10° SSE 02:44:54 63° ENE 02:50:21 10° N
SEDSat Delta rocket 4.0 02:44:01 10° SW 02:47:16 23° SSE 02:49:47 14° ESE
OAO 2 Rocket 3.4 02:43:59 10° W 02:48:58 62° S 02:53:28 12° ESE
Cosmos 1242 Rocket 3.1 02:47:47 10° N 02:51:12 38° ENE 02:53:50 15° SE
Cosmos 2221 3.6 02:49:47 10° NNE 02:53:31 28° ENE 02:56:12 16° SE
USA 307 2.9 02:50:04 10° NW 02:54:20 84° NE 02:57:40 16° SE
EPKM 4.5 02:53:37 10° S 02:54:31 11° SSE 02:55:15 10° SSE
MOS 1 4.3 02:52:32 10° SSE 02:58:13 85° ENE 03:03:54 10° NNW
Cosmos 1697 Rocket 3.2 03:00:11 10° N 03:05:37 45° ENE 03:09:28 18° SE
Hubble Space Telescope 2.3 03:03:23 10° SW 03:06:19 19° S 03:07:16 18° SSE
IGS 5A 3.5 03:04:14 16° SSE 03:07:26 60° ENE 03:11:32 10° N
Cosmos 1953 Rocket 4.3 03:04:43 10° SSW 03:09:08 57° W 03:13:34 10° N
Meteor 2-13 Rocket 4.4 03:03:31 10° S 03:09:37 81° E 03:15:45 10° N
Cosmos 2082 Rocket 2.4 03:04:19 10° S 03:09:39 48° ESE 03:15:03 10° NE
Cosmos 1606 3.8 03:06:40 10° NNE 03:09:54 27° ENE 03:11:14 22° ESE
USA 305 3.1 03:06:53 10° NW 03:11:01 61° SW 03:13:42 21° SSE
USA 308 3.0 03:06:58 10° NW 03:11:11 69° SW 03:13:51 21° SSE
Cosmos 1833 Rocket 2.9 03:07:40 10° SSW 03:13:17 75° WNW 03:18:57 10° NNE
SPOT 3 Rocket 3.8 03:09:28 17° SE 03:13:22 56° ENE 03:18:29 10° N
Resurs 1-3 4.1 03:11:21 10° S 03:15:40 58° W 03:20:01 10° NNW
BREEZE-M R/B 4.2 03:09:07 10° SSW 03:15:55 24° SSE 03:17:23 21° ESE
Cosmos 773 Rocket 3.9 03:11:43 10° S 03:16:52 65° ESE 03:22:01 10° NNE
Cosmos 1125 Rocket 4.3 03:18:31 10° NNW 03:23:37 49° WSW 03:28:42 10° S
Cosmos 2151 4.0 03:23:48 25° ESE 03:24:32 26° E 03:28:03 10° NNE
SWAS 4.4 03:21:26 10° NNW 03:25:43 83° WSW 03:28:06 25° SSE
Centaur D AC-29 3.9 03:11:47 10° W 03:30:22 25° SW 03:35:12 13° S
Cosmos 1825 4.0 03:27:18 10° SW 03:30:41 32° WNW 03:34:04 10° NNW
Cosmos 2058 3.6 03:26:37 10° SSW 03:30:41 56° W 03:34:49 10° N
Landsat 7 3.8 03:28:04 20° S 03:31:25 85° WSW 03:36:12 10° NNW
Cosmos 2279 Rocket 4.1 03:25:43 10° N 03:31:54 77° W 03:37:33 13° S
Cosmos 1842 Rocket 3.5 03:29:38 10° N 03:34:08 80° E 03:36:31 27° SSE
GP-B 4.3 03:30:51 10° NNE 03:34:29 24° E 03:34:52 24° E
USA 306 3.9 03:31:04 10° WNW 03:35:00 37° SW 03:36:55 24° S
COSMOS 2406 4.1 03:31:24 10° SW 03:36:54 52° WNW 03:42:28 10° NNE
Meteor 2-3 Rocket 4.4 03:36:27 28° SE 03:38:14 34° E 03:43:18 10° NNE
Cosmos 2369 3.8 03:35:04 10° NNW 03:40:41 62° ENE 03:43:18 31° SE
Cosmos 1076 Rocket 3.4 03:39:35 25° S 03:42:02 79° E 03:46:23 10° N
ERS-1 Rocket 3.9 03:40:52 27° ESE 03:42:27 33° ENE 03:46:56 10° N
Spot 2 Rocket 3.8 03:41:46 32° SE 03:43:48 51° ENE 03:48:46 10° N
OAO 1 Rocket 4.4 03:42:41 10° WSW 03:47:57 62° S 03:50:12 33° ESE
Resurs 01 Rocket 2.5 03:46:24 18° SSW 03:49:27 44° W 03:53:43 10° NNW
Atlas Centaur 2 3.4 03:46:47 10° SW 03:47:13 12° SSW 03:47:13 12° SSW
Cosmos 1437 4.2 03:47:17 10° NW 03:49:40 26° W 03:50:30 22° SW
BREEZE-M DEB (TANK) 3.9 03:47:04 10° NW 03:50:17 36° NE 03:55:45 16° E
BREEZE M DEB (TANK) 2.9 03:47:49 10° SW 03:50:33 64° SE 04:02:25 10° ENE
Cosmos 1980 Rocket 2.4 03:46:16 10° NNW 03:51:47 55° ENE 03:53:52 36° ESE
ATLAS 2AS CENTAUR R/B 3.7 03:47:08 10° SW 03:54:53 57° NW 04:02:34 10° NNE
Cosmos 1538 Rocket 3.9 03:53:58 23° S 03:57:13 75° ESE 04:02:25 10° NNE
Nadezhda 4 Rocket 4.0 03:52:26 15° S 03:57:41 81° W 04:03:54 10° N
RESURS DK-1 2.8 03:54:31 10° SW 03:58:36 61° WNW 04:02:44 10° NNE
Cosmos 2322 Rocket 4.2 03:55:51 10° NNE 03:58:48 14° NE 04:00:59 12° ENE
Cosmos 158 Rocket 4.0 03:58:12 42° SSE 03:59:30 54° ESE 04:04:34 10° NNE
GENESIS II 4.0 03:57:09 10° NNW 04:01:04 81° ENE 04:01:26 70° ESE
H-2A R/B 3.5 04:01:00 10° SW 04:02:15 12° SW 04:02:15 12° SW
USA 245 4.2 04:00:12 31° S 04:03:01 79° WSW 04:08:02 10° NNW
Cosmos 2098 Rocket 3.0 04:03:00 41° WSW 04:03:20 43° W 04:06:18 10° N
Cosmos 1271 Rocket 4.1 04:00:08 10° NNE 04:03:10 27° ENE 04:03:10 27° ENE
OAO 3 Copernicus 4.3 03:59:38 10° WSW 04:04:35 62° S 04:05:31 51° SE
Cosmos 1633 3.6 04:03:09 25° SW 04:04:47 43° W 04:08:15 10° N
ISS -0.9 04:07:30 10° N 04:08:58 12° NNE 04:10:26 10° NE
Meteor 2-19 Rocket 4.3 04:06:45 29° S 04:09:59 86° E 04:16:04 10° N
SPOT 1/Viking Rocket 4.1 04:09:03 29° SSW 04:11:32 54° W 04:16:38 10° NNW
USA 267 3.1 04:07:00 10° NE 04:13:35 86° SE 04:20:08 10° SW
ARIANE 5 R/B 2.6 04:16:06 63° S 04:16:49 88° W 04:21:19 10° NNW
ATLAS 3B R/B 3.1 04:10:05 10° NNW 04:17:09 59° NE 04:20:00 37° ESE
Cosmos 1933 3.5 04:13:07 10° N 04:16:52 59° ENE 04:16:52 59° ENE
Cosmos 1428 Rocket 4.3 04:21:28 44° S 04:23:32 77° E 04:29:40 10° N
SPOT 5 2.4 04:23:22 80° SE 04:23:35 85° ENE 04:27:55 10° NNW
SL-16 R/B 3.4 04:19:31 10° N 04:24:24 29° ENE 04:25:32 27° ENE
Cosmos 304 Rocket 4.3 04:22:09 10° N 04:26:45 44° ENE 04:26:50 43° ENE
CARTOSAT-1 4.1 04:28:49 46° SW 04:29:26 50° W 04:33:39 10° NNW
Cosmos 1553 Rocket 4.4 04:27:05 10° N 04:32:48 42° ENE 04:33:26 40° E
OAO 2 Rocket 4.2 04:28:48 10° W 04:32:23 34° SW 04:32:23 34° SW
ERBS 4.1 04:36:39 10° NW 04:38:22 29° NW 04:38:22 29° NW
Cosmos 371 Rocket 3.4 04:38:52 10° NNW 04:43:38 65° WSW 04:43:47 65° WSW
Terra 1.7 04:43:36 85° WSW 04:43:39 85° WSW 04:48:26 10° NNW
Cosmos 923 Rocket 3.9 04:43:33 76° S 04:43:58 85° ESE 04:49:20 10° NNE
USA 234 4.5 04:41:01 18° E 04:45:00 34° NNE 04:50:46 10° NNW
Meteor 1-26 Rocket 4.2 04:39:56 10° N 04:45:56 87° W 04:46:51 66° S
Cosmos 1697 Rocket 4.4 04:44:53 10° NW 04:49:13 23° W 04:51:14 19° SW
Cosmos 2082 Rocket 4.4 04:49:32 10° WSW 04:53:58 23° NW 04:58:27 10° N
Cosmos 1766 Rocket 4.0 04:56:00 61° N 04:56:00 61° N 04:59:42 10° N
Cosmos 1812 4.4 04:52:19 10° N 04:54:26 28° NNE 04:54:26 28° NNE
Cosmos 2278 4.1 04:52:14 10° NNW 04:57:41 50° WSW 04:58:17 48° SW
Cosmos 1782 3.8 04:55:53 10° NNW 04:58:50 46° NNW 04:58:50 46° NNW
S3M 4.4 04:54:07 10° N 05:00:16 47° ENE 05:00:35 47° E
Meteor 2-14 Rocket 4.3 05:01:57 74° SSE 05:02:31 84° E 05:08:41 10° N
Cosmos 2333 Rocket 4.3 05:05:04 10° NNE 05:08:10 15° NE 05:09:38 13° ENE
Cosmos 1328 Rocket 4.3 05:07:46 10° N 05:11:06 50° N 05:11:06 50° N
Cosmos 2360 Rocket 3.3 05:09:33 10° N 05:14:35 32° ENE 05:14:45 32° ENE
Cosmos 2112 Rocket 4.2 05:19:09 71° NW 05:19:09 71° NW 05:24:10 10° NNE
Cosmos 1680 Rocket 3.9 05:20:48 59° WNW 05:20:57 59° WNW 05:26:10 10° N
Cosmos 1151 Rocket 4.2 05:18:23 10° NNW 05:21:32 40° NW 05:21:32 40° NW
Cosmos 1980 Rocket 4.1 05:31:33 10° WNW 05:35:16 18° W 05:35:38 18° WSW
Cosmos 2322 Rocket 2.4 05:37:56 10° NNW 05:42:47 66° NNW 05:42:47 66° NNW
ISS -0.4 05:43:09 10° NW 05:43:31 12° NW 05:43:31 12° NW
Cosmos 2315 Rocket 4.1 05:56:33 10° N 06:02:23 74° NNE 06:02:23 74° NNE
Meteor 1-27 Rocket 4.1 06:00:19 10° N 06:04:57 62° NNW 06:04:57 62° NNW
COSMOS 2428 4.2 06:01:13 10° N 06:06:03 28° ENE 06:06:19 27° ENE
ATLAS 3B R/B 4.0 06:01:31 10° NW 06:07:15 28° WSW 06:07:15 28° WSW
SL-16 R/B 3.3 06:03:21 10° NW 06:07:23 34° WNW 06:07:23 34° WNW
Cosmos 2219 Rocket 3.3 06:06:27 10° N 06:11:15 36° NE 06:11:15 36° NE
COSMOS 2455 3.2 06:27:36 62° NNE 06:27:36 62° NNE 06:32:32 10° NNE
USA 234 3.3 06:28:20 69° W 06:28:20 69° W 06:34:10 10° NW
ALOS 2 4.5 06:33:40 27° NNW 06:33:40 27° NNW 06:35:46 10° NNW
Cosmos 1452 Rocket 4.4 06:28:36 10° NNW 06:32:21 46° N 06:32:21 46° N
CZ-3B R/B 4.0 06:29:45 10° NW 06:33:35 27° N 06:33:35 27° N
ATLAS 5 CENTAUR R/B 3.8 06:47:01 10° NNW 06:52:02 31° NE 06:54:21 24° E
Cosmos 2333 Rocket 2.9 06:47:28 10° NNW 06:51:37 50° NNW 06:51:37 50° NNW
Lacrosse 5 4.2 06:57:56 14° ENE 06:57:56 14° ENE 06:58:52 10° ENE
Cosmos 2360 Rocket 3.8 06:53:32 10° NW 06:56:30 26° WNW 06:56:30 26° WNW
Resurs 1-4 Rocket 4.2 07:00:54 10° NE 07:03:26 17° E 07:03:26 17° E
Nadezhda 1 Rocket 4.1 07:03:57 10° N 07:09:56 71° NE 07:09:56 71° NE
Cosmos 2297 Rocket 3.0 07:18:52 44° ENE 07:18:52 44° ENE 07:23:03 10° NNE
NOSS 3-1 (C) 4.0 07:10:19 10° NW 07:18:11 76° WSW 07:18:38 74° SSW
Cosmos 2237 Rocket 3.0 07:20:43 10° N 07:26:07 43° ENE 07:26:22 43° ENE
Cosmos 2227 Rocket 3.0 07:29:32 43° ENE 07:29:32 43° ENE 07:33:49 10° NNE
USA 229 DEB 3.9 07:22:09 10° NNW 07:29:37 84° ENE 07:30:34 71° SE
USA 229 3.9 07:22:15 10° NNW 07:29:44 83° ENE 07:30:42 70° SE
CZ-2D R/B 3.1 07:37:53 10° NNE 07:42:21 38° E 07:42:21 38° E
Meteor 2-4 Rocket 4.2 07:37:27 10° NNW 07:42:17 54° NW 07:42:17 54° NW
ADEOS II 4.0 07:41:00 10° NE 07:44:34 18° E 07:44:45 18° E
SL-16 R/B 4.2 07:45:14 10° N 07:49:46 24° ENE 07:53:48 12° ESE
NOSS 3-1 (A) 4.0 07:42:14 10° NW 07:50:07 77° WSW 07:51:23 66° S
COSMOS 2428 4.0 07:45:08 10° NW 07:48:18 29° WNW 07:48:18 29° WNW
Cosmos 2263 Rocket 4.4 07:54:29 13° ESE 07:55:19 13° E 07:57:46 10° ENE
Cosmos 2219 Rocket 3.9 07:50:39 10° NW 07:52:56 21° WNW 07:52:56 21° WNW
Timation 1 Rocket 4.4 07:58:54 69° E 07:58:54 69° E 08:04:30 10° NNE
UNK 4.4 08:15:00 51° ENE 08:15:00 51° ENE 08:19:20 10° N
Helios 1B rocket 3.8 08:12:09 10° NNE 08:14:58 35° ENE 08:14:58 35° ENE
Cosmos 2219 3.5 08:16:32 58° WNW 08:16:32 58° WNW 08:22:06 10° NNE
Cosmos 1066 Rocket 4.2 08:18:00 10° NNW 08:23:40 72° WNW 08:23:40 72° WNW
Cosmos 2084 Rocket 4.4 08:25:56 10° NNW 08:29:02 45° N 08:29:02 45° N
Cosmos 909 Rocket 4.4 08:29:11 51° W 08:30:21 58° NW 08:37:36 10° NNE
Timation 2 Rocket 3.9 08:31:10 63° W 08:31:35 65° WNW 08:37:37 10° NNE
IDEFIX/ARIANE 42P 3.9 08:30:35 10° NE 08:35:05 29° E 08:36:25 26° ESE
Cosmos 2251 Rocket 3.4 08:36:33 89° ENE 08:36:33 89° ENE 08:41:50 10° NNE
Cosmos 2082 3.5 08:36:22 80° SW 08:36:41 86° WNW 08:42:26 10° NNE
ATLAS 5 CENTAUR R/B 2.9 08:31:08 10° NW 08:35:47 46° W 08:35:47 46° W
Lacrosse 5 2.5 08:37:08 46° NW 08:37:23 47° NW 08:42:16 10° NNE
Meteor 1-11 Rocket 4.5 08:39:09 37° WNW 08:39:09 37° WNW 08:44:03 10° N
Resurs 1-4 Rocket 2.3 08:39:16 10° N 08:44:25 54° WNW 08:44:30 54° WNW
Cosmos 2184 Rocket 3.8 08:44:11 64° SSW 08:45:09 80° W 08:51:28 10° N
SL-16 R/B 2.4 08:45:15 63° SSW 08:46:05 71° WSW 08:52:16 10° NNW
Cosmos 1733 Rocket 3.1 08:50:26 75° N 08:50:26 75° N 08:54:32 10° N
Cosmos 2154 Rocket 3.9 08:50:40 52° S 08:52:18 80° E 08:58:31 10° N
SL-8 R/B 3.7 08:53:11 71° ESE 08:53:11 71° ESE 08:57:43 10° ENE
Cosmos 1140 Rocket 4.1 08:54:55 42° SE 08:56:03 49° ESE 09:01:06 10° NNE
AQUA 4.0 08:55:57 10° N 09:00:37 56° WNW 09:00:39 56° WNW
Cosmos 2297 Rocket 3.8 09:00:40 20° WNW 09:01:55 21° NW 09:06:09 10° N
NPP 4.1 08:59:53 10° N 09:05:00 45° WNW 09:05:37 43° W
Okean 2 4.1 09:03:59 10° N 09:08:04 52° E 09:09:08 40° SE
Cosmos 2074 Rocket 4.3 09:07:56 44° WSW 09:09:04 49° W 09:15:06 10° N
Cosmos 2237 Rocket 3.7 09:05:24 10° NW 09:08:09 21° WNW 09:08:09 21° WNW
ARIANE 5 R/B 4.0 09:07:50 10° NE 09:12:23 30° E 09:15:40 16° SSE
Cosmos 2227 Rocket 3.7 09:11:21 21° WNW 09:12:41 23° NW 09:17:06 10° N
Milstar 3 4.1 09:15:43 20° SSE 09:16:04 20° SSE 09:20:49 10° ESE
Meteor 1-28 Rocket 3.1 09:16:25 84° ENE 09:16:25 84° ENE 09:20:08 10° N
ADEOS Rocket 2.9 09:16:08 47° SW 09:16:57 51° W 09:22:18 10° NNW
Cosmos 192 4.3 09:17:02 10° NNW 09:21:54 62° WSW 09:22:39 54° SSW
CZ-2D R/B 3.4 09:18:22 10° NNW 09:22:44 26° WNW 09:23:40 24° W
ADEOS II 2.4 09:19:26 10° N 09:24:30 50° WNW 09:25:41 42° WSW
Meteor 2-9 Rocket 4.3 09:25:03 44° WSW 09:26:07 51° WNW 09:31:19 10° N
IRS-1D 3.5 09:22:59 10° N 09:27:54 62° WNW 09:29:10 46° SW
SL-8 Rocket 4.4 09:24:57 20° SSE 09:29:13 60° E 09:35:16 10° NNE
Cosmos 2227 4.2 09:27:46 37° S 09:30:02 77° ESE 09:35:40 10° NNE
Cosmos 1975 3.5 09:33:01 39° W 09:33:01 39° W 09:36:53 10° N
Iridium 4 Rocket 3.8 09:27:48 10° N 09:33:16 61° W 09:35:31 36° SSW
IRS-1C 4.4 09:28:04 10° NNE 09:33:22 62° ESE 09:36:26 25° S
SL-16 R/B 2.4 09:28:41 10° NW 09:34:04 47° WSW 09:35:33 38° SSW
NOSS 3-3 (A) 3.7 09:32:01 40° SW 09:34:15 85° NW 09:40:35 10° NNE
NOSS 3-3 (C) 3.7 09:32:08 40° SW 09:34:22 85° WNW 09:40:41 10° NNE
ATLAS CENTAUR R/B 1.4 09:33:49 49° SSE 09:34:25 56° ESE 09:38:13 10° NE
Landsat 4 4.1 09:33:33 10° N 09:37:04 43° WNW 09:37:08 43° WNW
Cosmos 2263 Rocket 2.2 09:36:12 38° SW 09:38:28 76° WNW 09:44:11 10° NNE
Cosmos 1461 3.6 09:41:30 36° W 09:42:46 45° NW 09:47:06 10° NNE
Cosmos 407 Rocket 3.8 09:41:19 36° SW 09:43:09 54° WNW 09:48:20 10° N
Cosmos 1707 2.5 09:40:13 10° N 09:44:03 75° W 09:45:07 45° S
Meteor 1-29 4.5 09:42:02 10° NNW 09:44:19 23° WNW 09:44:19 23° WNW
CZ-4C R/B 3.2 09:41:32 10° NNW 09:49:06 77° ENE 09:57:41 10° SE
Spot 1 4.1 09:47:01 12° SSE 09:50:49 75° ENE 09:54:54 10° N
Cosmos 1674 Rocket 4.3 09:51:02 10° NNW 09:55:00 33° W 09:55:42 31° WSW
Cosmos 2341 Rocket 4.0 09:51:38 25° SSW 09:55:21 65° W 10:01:33 10° N
Cosmos 1733 4.4 09:52:52 13° SSE 09:55:59 39° E 09:59:36 10° NNE
In-Cosmos 22 4.2 09:51:07 10° NNW 09:56:54 77° W 10:02:30 10° S
Cosmos 1238 Rocket 4.1 09:57:30 18° WNW 09:57:30 18° WNW 09:59:26 10° NNW
Cosmos 2218 Rocket 4.1 09:52:26 16° S 09:57:43 85° E 10:04:05 10° N
SL-08 R/B 3.9 09:53:50 10° SSE 09:58:41 62° ENE 10:03:35 10° N
COSMOS 2441 4.4 09:57:23 10° N 10:02:08 64° WNW 10:04:52 25° SSW
Cosmos 1300 Rocket 4.4 10:01:53 10° SSE 10:06:02 48° E 10:10:14 10° NNE
Cosmos 1975 Rocket 3.0 10:09:02 10° N 10:13:26 85° E 10:17:47 10° S
Cosmos 1943 3.2 10:07:58 10° NNW 10:13:43 86° ENE 10:19:24 10° SSE
IRS-P3 4.3 10:08:41 10° N 10:13:53 55° WNW 10:17:33 19° SW
IDEFIX/ARIANE 42P 3.6 10:10:07 10° N 10:14:35 30° WNW 10:17:14 20° WSW
Cosmos 1340 2.5 10:12:05 10° N 10:15:51 82° W 10:19:34 10° S
CZ-3B R/B 4.2 10:12:03 18° SW 10:17:51 30° S 10:23:03 10° SE
CZ-2C R/B 2.5 10:13:39 10° NNE 10:18:12 68° ESE 10:22:49 10° S
Cosmos 1400 Rocket 2.6 10:16:10 17° S 10:19:05 87° W 10:22:59 10° N
Cosmos 1626 2.5 10:16:13 10° N 10:19:53 65° E 10:23:31 10° SSE
Cosmos 2344 4.0 10:14:50 18° WSW 10:20:16 47° NW 10:27:39 10° NNE
Cosmos 1900 4.3 10:16:57 20° SSW 10:20:26 80° WNW 10:25:25 10° NNE
Lacrosse 5 4.3 10:19:04 10° NW 10:21:30 13° NNW 10:23:56 10° N
Cosmos 1674 2.8 10:22:30 10° NNW 10:26:16 53° W 10:29:58 10° S
USA 215 3.3 10:23:01 10° NE 10:29:34 81° NW 10:35:19 14° SW
Meteor 1-12 Rocket 4.5 10:28:01 13° SSW 10:32:51 53° WNW 10:38:26 10° N
PSLV R/B 4.4 10:32:05 10° NNE 10:36:15 48° E 10:40:21 10° S
Cosmos 1850 Rocket 4.2 10:34:38 10° SSW 10:39:55 79° ESE 10:45:13 10° NNE
ASTRO E2 3.6 10:40:22 15° SW 10:43:02 31° S 10:46:34 10° ESE
Cosmos 468 Rocket 4.2 10:40:49 10° NNW 10:46:08 77° ENE 10:51:21 10° SSE
CZ-4B R/B 4.1 10:41:55 10° N 10:46:21 37° WNW 10:50:38 10° SW
Cosmos 1025 Rocket 3.0 10:42:51 10° NNW 10:47:10 72° W 10:51:28 10° S
Meteor 2-5 Rocket 4.3 10:41:30 10° N 10:47:26 68° E 10:53:12 10° SSE
Cosmos 44 3.6 10:44:02 10° NW 10:48:54 44° WSW 10:53:29 10° S
Iridium 51 3.9 10:46:30 10° S 10:49:56 68° W 10:53:23 10° N
Cosmos 1821 Rocket 4.0 10:44:28 10° S 10:50:38 85° W 10:56:47 10° N
ARIANE 5 R/B 3.5 10:46:54 10° N 10:51:22 30° WNW 10:55:51 10° SW
Cosmos 1844 Rocket 2.7 10:46:24 10° SSW 10:52:03 90° SSE 10:57:45 10° NNE
FENGYUN 3A 3.7 10:54:28 10° N 10:59:52 68° WNW 11:05:13 10° SSW
Okean 2 Rocket 3.3 10:56:04 10° SSW 11:00:28 53° W 11:04:55 10° N
Cosmos 1603 4.3 10:56:01 10° NW 11:01:05 36° WSW 11:06:10 10° S
CZ-2C R/B 3.0 10:57:35 10° N 11:01:10 47° WNW 11:04:47 10° SSW
Aureole 1 Rocket 4.3 10:56:15 10° S 11:01:11 63° ESE 11:07:45 10° NNE
Sich 1 Rocket 4.5 11:02:50 10° SW 11:06:43 31° WNW 11:10:39 10° NNW
BREEZE M DEB (TANK) 3.1 11:02:12 10° SW 11:07:33 41° SSE 11:10:03 10° ENE
DNEPR-1 R/B 4.1 11:03:21 10° SSW 11:09:07 85° ESE 11:13:55 10° NNE
MOS 1 Rocket 3.5 11:05:26 10° S 11:10:24 70° W 11:15:41 10° NNW
Cosmos 1867 3.8 11:06:44 10° SSW 11:12:08 75° ESE 11:17:36 10° NE
